• In Czech Republic
  • List of Countries
  • For 7 days
  • Water Temperature
  • Satellite Maps
  • Weather Map
  • Weather Widgets
  • user-avatar
    Login

    Hourly Weather Thunder Bay

    Today, 21 February, Wednesday

    Time Temperature Precipitation Wind Pressure Humidity
    00:00 -22°C° 0 mm 5 mps 740 mmHg 86%
    01:00 -22°C° 0 mm 4 mps 741 mmHg 86%
    02:00 -22°C° 0 mm 4 mps 742 mmHg 87%
    03:00 -22°C° 0 mm 4 mps 743 mmHg 87%
    04:00 -22°C° 0 mm 4 mps 743 mmHg 88%
    05:00 -22°C° 0 mm 4 mps 744 mmHg 88%
    06:00 -22°C° 0 mm 4 mps 745 mmHg 89%
    07:00 -20°C° 0 mm 4 mps 745 mmHg 87%
    08:00 -20°C° 0 mm 4 mps 746 mmHg 85%
    09:00 -19°C° 0 mm 4 mps 747 mmHg 83%
    10:00 -17°C° 0 mm 4 mps 747 mmHg 80%
    11:00 -15°C° 0 mm 4 mps 748 mmHg 77%
    12:00 -12°C° 0 mm 4 mps 748 mmHg 73%
    13:00 -12°C° 0 mm 5 mps 749 mmHg 73%
    14:00 -12°C° 0 mm 5 mps 749 mmHg 73%
    15:00 -11°C° 0 mm 5 mps 749 mmHg 72%
    16:00 -11°C° 0 mm 4 mps 749 mmHg 76%
    17:00 -12°C° 0 mm 4 mps 750 mmHg 79%
    18:00 -13°C° 0 mm 3 mps 750 mmHg 83%
    19:00 -14°C° 0 mm 3 mps 750 mmHg 84%
    20:00 -15°C° 0 mm 3 mps 751 mmHg 85%
    21:00 -16°C° 0 mm 3 mps 751 mmHg 86%
    22:00 -16°C° 0 mm 3 mps 752 mmHg 87%
    23:00 -16°C° 0 mm 2 mps 752 mmHg 88%

    Tomorrow, 22 February, Thursday

    Time Temperature Precipitation Wind Pressure Humidity
    00:00 -17°C° 0 mm 2 mps 753 mmHg 89%
    01:00 -17°C° 0 mm 2 mps 753 mmHg 89%
    02:00 -18°C° 0 mm 2 mps 753 mmHg 90%
    03:00 -18°C° 0 mm 2 mps 754 mmHg 90%
    04:00 -19°C° 0 mm 2 mps 754 mmHg 90%
    05:00 -19°C° 0 mm 2 mps 753 mmHg 90%
    06:00 -17°C° 0 mm 1 mps 753 mmHg 89%
    07:00 -16°C° 0 mm 1 mps 753 mmHg 86%
    08:00 -14°C° 0 mm 1 mps 753 mmHg 84%
    09:00 -12°C° 0 mm 1 mps 754 mmHg 81%
    10:00 -10°C° 0 mm 1 mps 753 mmHg 80%
    11:00 -9°C° 0 mm 2 mps 753 mmHg 79%
    12:00 -8°C° 0 mm 3 mps 752 mmHg 78%
    13:00 -8°C° 0 mm 3 mps 752 mmHg 79%
    14:00 -8°C° 0 mm 3 mps 751 mmHg 81%
    15:00 -7°C° 0 mm 3 mps 750 mmHg 82%
    16:00 -8°C° 0 mm 3 mps 750 mmHg 84%
    17:00 -10°C° 0 mm 3 mps 749 mmHg 86%
    18:00 -10°C° 0 mm 2 mps 749 mmHg 88%
    19:00 -10°C° 0 mm 2 mps 749 mmHg 89%
    20:00 -10°C° 0 mm 2 mps 748 mmHg 90%
    21:00 -10°C° 0 mm 2 mps 748 mmHg 90%
    22:00 -9°C° 0.1 mm 2 mps 748 mmHg 92%
    23:00 -8°C° 0.1 mm 2 mps 747 mmHg 94%

    Day after tomorrow, 23 February, Friday

    Time Temperature Precipitation Wind Pressure Humidity
    00:00 -8°C° 0.1 mm 2 mps 747 mmHg 95%
    01:00 -7°C° 0.4 mm 2 mps 746 mmHg 96%
    02:00 -7°C° 0.4 mm 2 mps 745 mmHg 96%
    03:00 -7°C° 0.4 mm 2 mps 744 mmHg 97%
    04:00 -7°C° 0.3 mm 2 mps 744 mmHg 97%
    05:00 -7°C° 0.3 mm 2 mps 743 mmHg 97%
    06:00 -6°C° 0.3 mm 2 mps 743 mmHg 97%
    07:00 -6°C° 0.2 mm 2 mps 743 mmHg 95%
    08:00 -5°C° 0.2 mm 2 mps 742 mmHg 94%
    09:00 -5°C° 0.2 mm 2 mps 742 mmHg 93%
    10:00 -4°C° 0 mm 2 mps 741 mmHg 90%
    11:00 -3°C° 0 mm 2 mps 741 mmHg 88%
    12:00 -3°C° 0 mm 2 mps 741 mmHg 85%
    13:00 -2°C° 0 mm 2 mps 740 mmHg 84%
    14:00 -2°C° 0 mm 2 mps 740 mmHg 83%
    15:00 -2°C° 0 mm 2 mps 739 mmHg 82%
    16:00 -3°C° 0 mm 2 mps 739 mmHg 85%
    17:00 -4°C° 0 mm 2 mps 740 mmHg 87%
    18:00 -4°C° 0 mm 2 mps 740 mmHg 90%
    19:00 -5°C° 0 mm 2 mps 740 mmHg 90%
    20:00 -7°C° 0 mm 2 mps 740 mmHg 90%
    21:00 -8°C° 0 mm 2 mps 740 mmHg 90%
    22:00 -9°C° 0 mm 2 mps 740 mmHg 90%
    23:00 -10°C° 0 mm 2 mps 740 mmHg 90%

    24 February, Saturday

    Time Temperature Precipitation Wind Pressure Humidity
    00:00 -10°C° 0 mm 2 mps 740 mmHg 90%
    01:00 -12°C° 0 mm 2 mps 740 mmHg 90%
    02:00 -12°C° 0 mm 2 mps 740 mmHg 90%
    03:00 -13°C° 0 mm 2 mps 739 mmHg 90%
    04:00 -11°C° 0 mm 1 mps 739 mmHg 91%
    05:00 -12°C° 0 mm 1 mps 739 mmHg 91%
    06:00 -12°C° 0 mm 1 mps 738 mmHg 91%
    07:00 -11°C° 0 mm 1 mps 738 mmHg 89%
    08:00 -9°C° 0 mm 1 mps 738 mmHg 88%
    09:00 -7°C° 0 mm 1 mps 738 mmHg 86%
    10:00 -6°C° 0 mm 1 mps 737 mmHg 85%
    11:00 -6°C° 0 mm 2 mps 737 mmHg 85%
    12:00 -5°C° 0 mm 2 mps 736 mmHg 85%
    13:00 -5°C° 0 mm 3 mps 735 mmHg 86%
    14:00 -5°C° 0 mm 3 mps 734 mmHg 87%
    15:00 -5°C° 0 mm 4 mps 733 mmHg 88%
    16:00 -5°C° 0.1 mm 4 mps 732 mmHg 90%
    17:00 -5°C° 0.1 mm 4 mps 731 mmHg 91%
    18:00 -7°C° 0.1 mm 4 mps 731 mmHg 93%
    19:00 -7°C° 0.4 mm 5 mps 729 mmHg 93%
    20:00 -6°C° 0.4 mm 5 mps 727 mmHg 93%
    21:00 -6°C° 0.4 mm 6 mps 726 mmHg 93%
    22:00 -6°C° 0.9 mm 6 mps 724 mmHg 94%
    23:00 -6°C° 0.9 mm 6 mps 722 mmHg 94%

    25 February, Sunday

    Time Temperature Precipitation Wind Pressure Humidity
    00:00 -6°C° 0.9 mm 7 mps 720 mmHg 94%
    01:00 -7°C° 2 mm 7 mps 717 mmHg 94%
    02:00 -7°C° 2 mm 8 mps 715 mmHg 94%
    03:00 -8°C° 2 mm 9 mps 713 mmHg 94%
    04:00 -8°C° 2.5 mm 9 mps 711 mmHg 93%
    05:00 -8°C° 2.5 mm 9 mps 710 mmHg 91%
    06:00 -8°C° 2.5 mm 9 mps 709 mmHg 90%
    07:00 -8°C° 0.8 mm 9 mps 709 mmHg 90%
    08:00 -8°C° 0.8 mm 9 mps 710 mmHg 89%
    09:00 -8°C° 0.8 mm 9 mps 710 mmHg 88%
    10:00 -8°C° 0.5 mm 9 mps 712 mmHg 86%
    11:00 -8°C° 0.5 mm 9 mps 713 mmHg 85%
    12:00 -6°C° 0.5 mm 9 mps 714 mmHg 83%
    13:00 -8°C° 0.2 mm 9 mps 716 mmHg 82%
    14:00 -8°C° 0.2 mm 9 mps 718 mmHg 81%
    15:00 -8°C° 0.2 mm 9 mps 720 mmHg 80%
    16:00 -9°C° 0.1 mm 9 mps 722 mmHg 80%
    17:00 -8°C° 0.1 mm 8 mps 723 mmHg 79%
    18:00 -10°C° 0.1 mm 8 mps 725 mmHg 79%
    19:00 -11°C° 0 mm 8 mps 726 mmHg 79%
    20:00 -11°C° 0 mm 7 mps 727 mmHg 79%
    21:00 -11°C° 0 mm 7 mps 729 mmHg 79%
    22:00 -11°C° 0 mm 6 mps 730 mmHg 80%
    23:00 -12°C° 0 mm 6 mps 731 mmHg 80%

    26 February, Monday

    Time Temperature Precipitation Wind Pressure Humidity
    00:00 -14°C° 0 mm 6 mps 732 mmHg 81%
    01:00 -15°C° 0 mm 6 mps 733 mmHg 82%
    02:00 -17°C° 0 mm 6 mps 734 mmHg 83%
    03:00 -18°C° 0 mm 5 mps 735 mmHg 84%
    04:00 -19°C° 0 mm 5 mps 735 mmHg 85%
    05:00 -19°C° 0 mm 5 mps 736 mmHg 86%
    06:00 -19°C° 0 mm 4 mps 737 mmHg 87%
    07:00 -18°C° 0 mm 4 mps 737 mmHg 86%
    08:00 -16°C° 0 mm 3 mps 738 mmHg 85%
    09:00 -14°C° 0 mm 2 mps 738 mmHg 84%
    10:00 -13°C° 0 mm 3 mps 738 mmHg 82%
    11:00 -10°C° 0 mm 3 mps 738 mmHg 81%
    12:00 -9°C° 0 mm 4 mps 738 mmHg 79%
    13:00 -8°C° 0 mm 4 mps 737 mmHg 79%
    14:00 -8°C° 0 mm 5 mps 736 mmHg 79%
    15:00 -9°C° 0 mm 6 mps 736 mmHg 79%
    16:00 -8°C° 0.1 mm 5 mps 735 mmHg 82%
    17:00 -8°C° 0.1 mm 5 mps 735 mmHg 85%
    18:00 -8°C° 0.1 mm 5 mps 735 mmHg 88%
    19:00 -7°C° 0 mm 5 mps 734 mmHg 88%
    20:00 -7°C° 0 mm 5 mps 734 mmHg 88%
    21:00 -6°C° 0 mm 5 mps 734 mmHg 89%
    22:00 -6°C° 0 mm 5 mps 733 mmHg 89%
    23:00 -6°C° 0 mm 5 mps 733 mmHg 90%
    Show more